Address 0xec4a2fcbc64a42e9a2a38e67069162f9d7ad4fbe

Overview

Balance:
2.282771347270804519 AVAX

AVAX Value:
$77.20 (@ $33.82/AVAX)
Txn Hash Method
Block
From
To
Value [Txn Fee]
0xfdeb169ac402a72e32e521deffd9860d12ef44847ef39baf20c162c27b2061b30xdb58a659147579432022-05-16 5:25:401 day 2 hrs ago0xec4a2fcbc64a42e9a2a38e67069162f9d7ad4fbeOUT 0xd12222329364c5fe5a5f87cd67e54accb2547be10.00283 AVAX0.0116996705 26.5
0x2b566ec43db983e2af5e2d4ba6e0cfc26201f70d6d48e163e00ecb4b424ba1cbApprove147579362022-05-16 5:25:251 day 2 hrs ago0xec4a2fcbc64a42e9a2a38e67069162f9d7ad4fbeOUT 0xf693248f96fe03422fea95ac0afbbbc4a8fdd1720 AVAX0.00124391 26.5
0x20863d4bb9cb32e58168e28251e2a3a72ef9080cb282e57a914e2155850bd3590xdb58a659147564212022-05-16 4:34:411 day 3 hrs ago0xec4a2fcbc64a42e9a2a38e67069162f9d7ad4fbeOUT 0xd12222329364c5fe5a5f87cd67e54accb2547be10.00283 AVAX0.0111319875 26.5
0xecfdd1a2f3af62934f874c42f97e034deb864dbb99f03279da9af3dfa286c61bApprove147563932022-05-16 4:33:461 day 3 hrs ago0xec4a2fcbc64a42e9a2a38e67069162f9d7ad4fbeOUT 0xa32608e873f9ddef944b24798db69d80bbb4d1ed0 AVAX0.0012445195 26.5
0x6ba885d21d697a965f1cc6540e0f67402bf86c8a3ebccc3dc54cd2046011e865Swap Exact AVAX ...147562562022-05-16 4:29:131 day 3 hrs ago0xec4a2fcbc64a42e9a2a38e67069162f9d7ad4fbeOUT Trader Joe: Router8 AVAX0.003408584492 26.525330092
0x9f54b7475aef3ee0c4280e17291624a6265e660b59ba403fe9e2462cbc0dd8d5Swap AVAX For Ex...147562322022-05-16 4:28:251 day 3 hrs ago0xec4a2fcbc64a42e9a2a38e67069162f9d7ad4fbeOUT Trader Joe: Router10.036709918121286 AVAX0.0037278875 26.5
0x2a2a414a2c6ba06a6512685181c2c89b88f04e685be3f6338ca671b05de83d1d0xe9b31e20147561732022-05-16 4:26:261 day 3 hrs ago0xec4a2fcbc64a42e9a2a38e67069162f9d7ad4fbeOUT 0x27f6df9e8081bc5ab35b2855dbe88870a224c8aa0 AVAX0.1746943865 26.5
0xbb1ecbc44f6dbe2afb81b945f95dbbb1d5e4b55e573050d7cd8134654e5d26650x6a6fe21d147561022022-05-16 4:23:571 day 3 hrs ago0xec4a2fcbc64a42e9a2a38e67069162f9d7ad4fbeOUT Crabada: Crabada NFT0 AVAX0.0035891625 27.5
0xbe1884f70b646ed3c0d9c4970fb867e6fd24cc782f30c8ba818805216f4bcb6b0x6a6fe21d147560992022-05-16 4:23:511 day 3 hrs ago0xec4a2fcbc64a42e9a2a38e67069162f9d7ad4fbeOUT Crabada: Crabada NFT0 AVAX0.0035889425 27.5
0xbbd5312e9a40455b6e8e23a9db7fb80d420b128a8728e64fb81d7026dad5e1cc0x6a6fe21d147560952022-05-16 4:23:431 day 3 hrs ago0xec4a2fcbc64a42e9a2a38e67069162f9d7ad4fbeOUT Crabada: Crabada NFT0 AVAX0.0035891625 27.5
0x9d0c9909cef90f0cb9d705626f5c1893d8ef1f2bef6ff23795c5ba8d10eec1ea0x6a6fe21d147560932022-05-16 4:23:391 day 3 hrs ago0xec4a2fcbc64a42e9a2a38e67069162f9d7ad4fbeOUT Crabada: Crabada NFT0 AVAX0.0035889425 27.5
0x0d74707eaa93d6667d6a7168c49a2c16589e51298514a7e6ecf2221cac0d9d110x6a6fe21d147560632022-05-16 4:22:381 day 3 hrs ago0xec4a2fcbc64a42e9a2a38e67069162f9d7ad4fbeOUT Crabada: Crabada NFT0 AVAX0.0035889425 27.5
0x404e233b7e782a1128dcdec3fc2eae10bf0514598fbb4e5af68b7b06857eecdf0x6a6fe21d147560602022-05-16 4:22:331 day 3 hrs ago0xec4a2fcbc64a42e9a2a38e67069162f9d7ad4fbeOUT Crabada: Crabada NFT0 AVAX0.0035891625 27.5
0xff8faef06f5951ca82fcd90e6e501953021fa7a59a05aaec41ddcd1df50714380x6a6fe21d147560562022-05-16 4:22:251 day 3 hrs ago0xec4a2fcbc64a42e9a2a38e67069162f9d7ad4fbeOUT Crabada: Crabada NFT0 AVAX0.0035891625 27.5
0xb57ae27d08992950fe7b67bc3313297fb728afd47e8552814b523eb03667deef0x6a6fe21d147560522022-05-16 4:22:171 day 3 hrs ago0xec4a2fcbc64a42e9a2a38e67069162f9d7ad4fbeOUT Crabada: Crabada NFT0 AVAX0.0035889425 27.5
0x2fe5e623417abc6584721aaac2a56c11387701aabbe164c4a575cdc20d96b3050x6a6fe21d147560502022-05-16 4:22:131 day 3 hrs ago0xec4a2fcbc64a42e9a2a38e67069162f9d7ad4fbeOUT Crabada: Crabada NFT0 AVAX0.0035891625 27.5
0xce53ee5f848a4ad2734fc4a9af832304d8205186625948ab6f303c402d8e5ddf0x6a6fe21d147560472022-05-16 4:22:071 day 3 hrs ago0xec4a2fcbc64a42e9a2a38e67069162f9d7ad4fbeOUT Crabada: Crabada NFT0 AVAX0.0035889425 27.5
0x646443e721c613d30e311c9ecc9a54ab38aeaf3ee6a7c696171fdb01d6f92ade0x6a6fe21d147560452022-05-16 4:22:031 day 3 hrs ago0xec4a2fcbc64a42e9a2a38e67069162f9d7ad4fbeOUT Crabada: Crabada NFT0 AVAX0.0035891625 27.5
0xba1f04d0b88d07bf5d0c6100fe83312c3f0aa64478aa999be13b338af28d26a30x6a6fe21d147560432022-05-16 4:21:591 day 3 hrs ago0xec4a2fcbc64a42e9a2a38e67069162f9d7ad4fbeOUT Crabada: Crabada NFT0 AVAX0.0035891625 27.5
0x6dad6c6ab75f61b670f435c87388501386253f02957b2d6f3fe1d0dc9c55f8290x6a6fe21d147560392022-05-16 4:21:511 day 3 hrs ago0xec4a2fcbc64a42e9a2a38e67069162f9d7ad4fbeOUT Crabada: Crabada NFT0 AVAX0.0035891625 27.5
0x48859a9fb5b008fbc757ee0e319b9374146e222b29a8d7da16cf412606fedc480x6a6fe21d147560382022-05-16 4:21:481 day 3 hrs ago0xec4a2fcbc64a42e9a2a38e67069162f9d7ad4fbeOUT Crabada: Crabada NFT0 AVAX0.0035891625 27.5
0x5d72bfafd485d7206b2c58c27c95b5e96949dd341a781c6a6ec2e4f658e794830x6a6fe21d147559882022-05-16 4:20:091 day 3 hrs ago0xec4a2fcbc64a42e9a2a38e67069162f9d7ad4fbeOUT Crabada: Crabada NFT0 AVAX0.0035891625 27.5
0x96c1c595b983afc400d8cb658738db5c4672a90704b47a1eb2733ec46a225b6c0x6a6fe21d147559852022-05-16 4:20:011 day 3 hrs ago0xec4a2fcbc64a42e9a2a38e67069162f9d7ad4fbeOUT Crabada: Crabada NFT0 AVAX0.0035891625 27.5
0xd883c6ed270697dc0971b6d19579a1218ed8df5b4241e82bba255f8e19039c730x6a6fe21d147559822022-05-16 4:19:571 day 3 hrs ago0xec4a2fcbc64a42e9a2a38e67069162f9d7ad4fbeOUT Crabada: Crabada NFT0 AVAX0.0035889425 27.5
0x58f9f6b502d178fde36d86d26933dd9113d0147bbca8a9829780edcdc09311c80x6a6fe21d147559802022-05-16 4:19:531 day 3 hrs ago0xec4a2fcbc64a42e9a2a38e67069162f9d7ad4fbeOUT Crabada: Crabada NFT0 AVAX0.0035891625 27.5
[ Download CSV Export 
Latest 10 internal transactions
Parent Txn Hash Block From To Value
0xfdeb169ac402a72e32e521deffd9860d12ef44847ef39baf20c162c27b2061b3147579432022-05-16 5:25:401 day 2 hrs ago 0x66a71dcef29a0ffbdbe3c6a460a3b5bc225cd6750xec4a2fcbc64a42e9a2a38e67069162f9d7ad4fbe0.0010013340545472 AVAX
0x20863d4bb9cb32e58168e28251e2a3a72ef9080cb282e57a914e2155850bd359147564212022-05-16 4:34:411 day 3 hrs ago 0x66a71dcef29a0ffbdbe3c6a460a3b5bc225cd6750xec4a2fcbc64a42e9a2a38e67069162f9d7ad4fbe0.0010013340545472 AVAX
0x9f54b7475aef3ee0c4280e17291624a6265e660b59ba403fe9e2462cbc0dd8d5147562322022-05-16 4:28:251 day 3 hrs ago Trader Joe: Router0xec4a2fcbc64a42e9a2a38e67069162f9d7ad4fbe0.049933880189658142 AVAX
0xa952222be653f6a4d1c783e4b5d61020fcb1bf9d8b8ee561dfb4d787804dc0d1144865972022-05-09 22:25:497 days 9 hrs ago Trader Joe: Router0xec4a2fcbc64a42e9a2a38e67069162f9d7ad4fbe2 AVAX
0x4d649b188e3fdf4703fbc6a9de3957c8121c68cf8e5e07864c4012451e531307143764022022-05-07 6:30:3110 days 1 hr ago Trader Joe: Router0xec4a2fcbc64a42e9a2a38e67069162f9d7ad4fbe2 AVAX
0x56276cd8bc186f929f273bea0381172de72236a6e5ce9a71ca94b9df4de383c0142760892022-05-04 21:01:3612 days 10 hrs ago Trader Joe: Router0xec4a2fcbc64a42e9a2a38e67069162f9d7ad4fbe2 AVAX
0x37b6bc8e8029df98975e42941793dcd4b0f370e0278c87964a440500568d0a6f130853172022-04-06 23:14:2840 days 8 hrs ago Trader Joe: Router0xec4a2fcbc64a42e9a2a38e67069162f9d7ad4fbe1 AVAX
0xc05e4d516e76a11a96fe41b944cf03d5445e782bba40de538940fb897c11664f129886802022-04-04 15:49:3242 days 15 hrs ago Trader Joe: Router0xec4a2fcbc64a42e9a2a38e67069162f9d7ad4fbe0.5 AVAX
0x312dffffa8415797f44655630791919e481355f9ce65b2eb9c61772596a2bbd1127333832022-03-29 15:16:1348 days 16 hrs ago Trader Joe: Router0xec4a2fcbc64a42e9a2a38e67069162f9d7ad4fbe0.024832228762365898 AVAX
0x1eaa04e8e8e318b0e4e285f877101a89bccb37d37485ae0e02c9e9da2c858ed1127333342022-03-29 15:14:3248 days 16 hrs ago Trader Joe: Router0xec4a2fcbc64a42e9a2a38e67069162f9d7ad4fbe0.012314061642807604 AVAX
[ Download CSV Export 
Loading

Contract Name:
0

Compiler Version
0

Optimization Enabled:
0

Other Settings:
-NA-
Block Transaction Gas Used Reward
Age Block Fee Address BC Fee Address Voting Power Jailed Incoming
Block Uncle Number Difficulty Gas Used Reward
Loading
Make sure to use the "Vote Down" button for any spammy posts, and the "Vote Up" for interesting conversations.